Location: ?ern� Novina
(50.6762°N, 14.8696°E)
Time: 12:53:21
(UTC+00:00)

Cosmos 1633 Rocket - Pass Details

Date: 03 March 2021
Orbit: 606 x 624 km, 82.5° (Epoch: 16 April)

Event Time Altitude Azimuth Distance (km) Brightness Sun altitude
Rises 17:57:11 0° 198° (SSW) 2,893 6.7 -12.1°
Reaches altitude 10° 17:59:25 10° 201° (SSW) 1,993 5.9 -12.5°
Maximum altitude 18:03:48 62° 283° (WNW) 708 3.6 -13.2°
Drops below altitude 10° 18:08:13 10° 4° (N) 2,011 5.7 -13.9°
Sets 18:10:30 0° 8° (N) 2,922 6.5 -14.2°
